Location: Montreal
(45.5000°N, 73.5833°W)
Time: 02:01:40
(UTC-04:00)

ISS - Pass Details

Date: 15 October 2017
Orbit: 401 x 408 km, 51.6° (Epoch: 17 October)

Event Time Altitude Azimuth Distance (km) Brightness Sun altitude
Rises 18:33:31 0° 296° (WNW) 2,324 1.1 -5.2°
Reaches altitude 10° 18:35:37 10° 292° (WNW) 1,462 0.1 -5.5°
Maximum altitude 18:38:49 51° 215° (SW) 516 -3.0 -6.1°
Drops below altitude 10° 18:42:00 10° 138° (SE) 1,458 -1.4 -6.7°
Sets 18:44:06 0° 133° (SE) 2,316 -0.4 -7.0°
Enters shadow 18:44:08 - 133° (SE) 2,327 -0.4 -7.0°
